星链-4300 (STARLINK-4300 )

导读 | 星芒AI

STARLINK-4300 是 SpaceX Starlink 项目中的第 4300 颗卫星,属于其低轨卫星互联网星座的一部分。该卫星旨在为全球用户提供高速、低延迟的互联网服务,尤其覆盖偏远和网络基础设施薄弱的地区。它采用先进的推进和通信技术,支持 Ku 和 Ka 频段,具备自动避撞功能,以确保在轨安全。STARLINK-4300 的发射进一步增强了 Starlink 网络的覆盖与稳定性,助力实现全球宽带接入的目标。

基本信息
目录编号:
53173
目录名称:
STARLINK-4300
国际标识:
2022-083AT
轨道中心:
EARTH
卫星名称:
星链-4300
卫星全名:
星链-4300 (STARLINK-4300 )
卫星状态:
在轨 (已飞行1207 天)
发射日期:
2022-07-17 UTC
国别 :
美国 (US)
星等 :
--
轨道信息
数据来源 国际轨道数据
星历时间: 2025-11-05T03:15:34+0800
7小时前
查看轨道信息
半长轴: 6917.877km
偏心率: 0.0001339
轨道倾角: 53.218°
近地点辐角 88.810°
升交点赤经 339.751°
平近点角 271.304°
近地点: 538.815km
远地点: 540.669km
周期: 95.437分钟
每日圈数: 15.088414
详细信息
固有亮度:
5
最大亮度:
2.5
卫星平台:
Starlink v1.5
覆盖范围:
全球
运营商:
太空探索技术公司
运营商所在国:
美国
制造商(研发单位):
太空探索技术公司
制造商所在国:
美国
使用方式:
暂无
卫星简介
星链(Starlink)计划是由太空探索技术公司(SpaceX)提出的一个巨型低轨卫星互联网星座项目,计划在2019年至2024年间在太空搭建由约1.2万颗卫星组成的“星链”网络,其中1584颗将部署在地球上空550千米处的近地轨道,并从2020年开始工作。该卫星仍在工作。
2D轨道图
3D轨道图
轨道高度分析图
轨道倾角分析图
轨道综合分析图
查看轨道综合分析图